sat.trackr.live / text

‹ back to catalog

STARLINK-4295

NORAD 52996 · 2022-076L

PAYLOAD ACTIVE UNKNOWN

§ Identity

Operator
Country
US
Launch date
2022-07-07
Launch site
AFETR
Launch vehicle
Mass (kg)
RCS (m²)

Purposes: comms

External: N2YO · Heavens-Above · Gunter

§ Orbital elements

Epoch: 2026-09-19T17:09:43.338816Z

Period
93.85 min
Inclination
53.1590°
Eccentricity
0.0001405
Mean motion
15.34387244 rev/d
Perigee alt
461.8 km
Apogee alt
463.7 km
Semi-major
6,840.9 km
B*
2.1757e-5
RAAN
287.7322°
Arg perigee
66.8136°
Mean anomaly
293.3014°
Rev number
23,234

§ Raw data

STARLINK-42951 52996U 22076L   26262.71508494  .00000359  00000+0  21757-4 0  99962 52996  53.1590 287.7322 0001405  66.8136 293.3014 15.34387244232344

JSON: /api/v1/satellites/52996 · /tle

For live sub-satellite position, see the globe view (requires WebGL).

§ Visibility from observer

Set your observer location to see the next 7 days of passes ≥ 10°. The values pass through the URL so the page stays shareable.

No JS? Fill the form by hand. The geolocation button needs JavaScript.